Location: Newark
(45.9167°N, 5.5000°E)
Time: 19:05:14
(UTC+00:00)

ISS - Pass Details

Date: 19 January 2020
Orbit: 415 x 422 km, 51.6° (Epoch: 24 February)

Event Time Altitude Azimuth Distance (km) Brightness Sun altitude
Rises 18:03:05 0° 192° (SSW) 2,364 0.4 -16.9°
Reaches altitude 10° 18:05:58 10° 165° (SSE) 1,503 -1.0 -17.4°
Enters shadow 18:06:43 12° 153° (SSE) 1,373 -1.3 -17.5°
